Location: Nashville
(36.1660°N, 86.7840°W)
Time: 04:59:20
(UTC-05:00)

Tiros 1 - Pass Details

Date: 31 January 2022
Orbit: 630 x 663 km, 48.4° (Epoch: 29 May)

Event Time Altitude Azimuth Distance (km) Brightness Sun altitude
Rises 17:43:02 0° 186° (S) 2,959 10.9 -6.6°
Reaches altitude 10° 17:46:18 10° 162° (SSE) 2,059 9.7 -7.2°
Maximum altitude 17:48:55 15° 129° (SE) 1,770 9.1 -7.7°
Drops below altitude 10° 17:51:32 10° 95° (E) 2,072 9.2 -8.2°
Enters shadow 17:51:52 - 92° (E) 2,147 9.2 -8.3°
